OPS 4682 DEB, 38362

Orbit data source: Space-Track

OPS 4682 DEB, 38362 is space debris in LEO originally from a launch on Sat, 03 Apr 1965 UTC launched from the Air Force Western Test Range (AFWTR). Debris objects in space refer to the collection of defunct objects orbiting the Earth. Examples of debris include non-operational satellites, rocket bodies, and fragments generated from explosions, collisions, or faulty payload assembly.

Loading next visibility...
Identifier
38362, 1965-027BP
Orbit
LEO
Country
Flag of USUS
Related business
Manufacturer
Unknown
Mission
Spacecraft
Bus & Motor
Unknown
Mass
Unknown
Launch date (UTC)
1965-04-03 (61 years ago)
Launch vehicle
Unknown
Launch site
Air Force Western Test Range (AFWTR)
Object type
Payload
Rocket body
Debris
Shape & HBR
Unknown shape, 0.1 m
Radar Cross Section
Medium (>0.1 m² and <1 m²)

Expand to show TLE details & history
Last TLE update: 13 hours ago

TLE from 13 hours ago
0 OPS 4682 DEB
1 38362U 65027BP  26174.80324347 -.00000261  00000-0 -92860-3 0  9992
2 38362  90.2473  11.1443 0046934 102.3204 258.3176 12.97084811464255
Epoch: 2026-06-23T19:16Z
TLE epoch observation values (Epoch: 2026-06-23T19:16:40.235Z)
Latitude
-0.00008°
Longitude
170.00709°
Altitude
1,283.844 km
Speed
7.211 km/s
True Right ascension
00h 44m 34s
True Declination
0° 00' 00"
Sunlit
Object was in daylight at epoch
Visualization orbit readout
Latitude
Unknown
Longitude
Unknown
Altitude
Unknown
Speed
Unknown
Apparent Right ascension
Unknown
Apparent Declination
Unknown
Sunlit
N/A
Visualization observer readout
Local Sidereal Time
19:25:58
Azimuth
Unknown
Elevation
Unknown
Doppler factor
Unknown
Orbital elements
Apogee altitude
1,306.56 km
Perigee altitude
1,234.762 km
Semi-major axis
7,648.798 km
Eccentricity
0.00469
Inclination
90.2473°
RAAN
11.1443°
Arg. of periapsis
102.3204°
True anomaly
257.79155°
Mean anomaly
258.3176°
Eccentric anomaly
258.05451°
Mean motion
3.24454 °/min
Orbital period
110.96 mins
BSTAR
-0.0009286
Loading maneuver chart data...
Computing Atmospheric mass density...
Loading historical data...
Loading historical data...
Loading historical data...
Loading historical data...
Loading historical data...
Loading historical data...
Loading historical data...

Documentation

Showing up to 5 results
|